Location: A�t Lahcen
(32.8243°N, 5.4246°W)
Time: 01:51:01
(UTC+00:00)

Okean O Rocket - Pass Details

Date: 27 January 2021
Orbit: 622 x 645 km, 98.2° (Epoch: 26 February)

Event Time Altitude Azimuth Distance (km) Brightness Sun altitude
Rises 06:32:17 0° 17° (NNE) 2,910 5.0 -10.3°
Reaches altitude 10° 06:34:31 10° 22° (NNE) 1,998 4.3 -9.8°
Maximum altitude 06:38:47 56° 101° (E) 744 2.4 -9.0°
Drops below altitude 10° 06:43:01 10° 179° (S) 1,981 4.4 -8.1°
Sets 06:45:13 0° 184° (S) 2,884 5.2 -7.7°
